"SCET";"TARGET";"ELECTRON_DENSITY";"ERROR_FLAG";"ELECTRON_DENSITY_ERROR";"FREQ_FCE";"MEASURED_VALUE";"MEASURED_ITEM";"FREQ_PLASMA";"FREQ_UPPER_HYBRID";"FREQ_R_EQUALS_ZERO";"FREQ_L_EQUALS_ZERO";"ORBIT_NUMBER";"SATURN_RADIUS";"SATURN_IAU_LONGITUDE";"SATURN_SLS4_S_LONGITUDE";"SATURN_SLS4_N_LONGITUDE";"SATURN_SLS5_S_LONGITUDE";"SATURN_SLS5_N_LONGITUDE";"SATURN_LOCAL_TIME";"SATURN_KRONOGRAPHIC_LATITUDE";"SATURN_MAGNETIC_LATITUDE";"SATURN_L";"SATURN_L_OFFSET";"SATURN_SOLAR_EQUATORIAL_X";"SATURN_SOLAR_EQUATORIAL_Y";"SATURN_SOLAR_EQUATORIAL_Z";"SATURN_ALTITUDE";"ENCELADUS_ENCOUNTER_NUMBER";"ENCELADUS_RADIUS";"ENCELADUS_COROTATIONAL_X";"ENCELADUS_COROTATIONAL_Y";"ENCELADUS_COROTATIONAL_Z";"ENCELADUS_TRUE_ANOMALY";"ENCELADUS_PERIAPSIS_TIME";"JUPITER_RADIUS";"JUPITER_SYSTEMIII_LONGITUDE";"JUPITER_MAGNETIC_LATITUDE";"JUPITER_MAGNETIC_LOCAL_TIME";"JUPITER_L";"IO_PHASE";"EARTH_RADIUS";"EARTH_MAGNETIC_LATITUDE";"EARTH_LOCAL_TIME";"EARTH_L"
"[UTC]";"[0=Saturn, 1=Enceladus, 2=Jupiter, 3=Earth]";"[cm-3]";"[0=automated, 1=manual]";"[normalized density error]";"[Hz]";"[Hz]";"[0=upper hybrid frequency, 1=plasma frequency cutoff]";"[Hz]";"[Hz]";"[Hz]";"[Hz}";"[0, A, B, C, 3, 4, ... , 292, 293]";"[Rs where 1Rs=60268km]";"[degrees]";"[degrees]";"[degrees]";"[degrees]";"[degrees]";"[hours]";"[degrees]";"[degrees where offset=2293km north]";"[Rs where 1Rs=60268km]";"[Rs where 1Rs=60268km and offset=2293km north]";"[Rs where 1Rs=60268km]";"[Rs where 1Rs=60268km]";"[Rs where 1Rs=60268km]";"[km where ellipsoid a,b=60268km and c=54364km]";"[E0, E1, E2, ... , E21, E22]";"[Renc where 1Renc=252.1km]";"[Renc where 1Renc=252.1km]";"[Renc where 1Renc=252.1km]";"[Renc where 1Renc=252.1km]";"[degrees]";"[UTC]";"[Rj where 1Rj=71492km]";"[degrees]";"[degrees using JRM09 model]";"[hours using JRM09 model]";"[Rj where 1Rj=71492km]";"[degrees]";"[Re where 1Re=6378.1366km]";"[degrees]";"[hours]";"[Re where 1Re=6378.1366km]"
2001-01-23T00:00:24.113Z;2;4.6010e-02;1;     0.310;    27.165;   1926.293; 1;   1926.293;   1926.484;   1939.923;   1912.758;;;;;;;;;;;;;;;;;;;;;;;; 339.663; 277.435;  -1.747;  20.591; 339.979; 190.536;;;;
2001-01-23T00:01:28.112Z;2;4.6010e-02;1;     0.310;    26.626;   1926.293; 1;   1926.293;   1926.477;   1939.652;   1913.026;;;;;;;;;;;;;;;;;;;;;;;; 339.671; 278.079;  -1.861;  20.592; 340.030; 190.686;;;;
2001-01-23T00:02:32.112Z;2;4.6010e-02;1;     0.809;    26.484;   1926.293; 1;   1926.293;   1926.475;   1939.580;   1913.097;;;;;;;;;;;;;;;;;;;;;;;; 339.680; 278.723;  -1.975;  20.592; 340.084; 190.837;;;;
2001-01-23T00:03:36.111Z;2;6.8850e-02;1;     0.180;    26.342;   2356.256; 1;   2356.256;   2356.403;   2369.464;   2343.122;;;;;;;;;;;;;;;;;;;;;;;; 339.689; 279.367;  -2.089;  20.593; 340.141; 190.987;;;;
2001-01-23T00:04:40.111Z;2;6.8850e-02;1;     0.180;    26.307;   2356.256; 1;   2356.256;   2356.403;   2369.446;   2343.139;;;;;;;;;;;;;;;;;;;;;;;; 339.698; 280.012;  -2.203;  20.594; 340.201; 191.137;;;;
2001-01-23T00:05:44.110Z;2;6.8850e-02;1;     0.180;    25.992;   2356.256; 1;   2356.256;   2356.399;   2369.288;   2343.296;;;;;;;;;;;;;;;;;;;;;;;; 339.707; 280.656;  -2.318;  20.595; 340.263; 191.287;;;;
2001-01-23T00:06:48.110Z;2;6.8850e-02;1;     0.180;    26.702;   2356.256; 1;   2356.256;   2356.407;   2369.645;   2342.943;;;;;;;;;;;;;;;;;;;;;;;; 339.716; 281.300;  -2.432;  20.595; 340.329; 191.437;;;;
2001-01-23T00:07:52.109Z;2;6.8850e-02;1;     0.180;    26.572;   2356.256; 1;   2356.256;   2356.406;   2369.579;   2343.008;;;;;;;;;;;;;;;;;;;;;;;; 339.724; 281.944;  -2.547;  20.596; 340.397; 191.587;;;;
2001-01-23T00:08:56.109Z;2;6.8850e-02;1;     0.180;    26.490;   2356.256; 1;   2356.256;   2356.405;   2369.538;   2343.048;;;;;;;;;;;;;;;;;;;;;;;; 339.733; 282.588;  -2.662;  20.597; 340.468; 191.737;;;;
2001-01-23T00:11:04.108Z;2;6.5830e-02;1;     0.184;    26.668;   2304.094; 1;   2304.094;   2304.248;   2317.466;   2290.799;;;;;;;;;;;;;;;;;;;;;;;; 339.751; 283.876;  -2.892;  20.598; 340.618; 192.037;;;;
2001-01-23T00:12:08.107Z;2;6.5830e-02;1;     0.184;    26.647;   2304.094; 1;   2304.094;   2304.248;   2317.456;   2290.809;;;;;;;;;;;;;;;;;;;;;;;; 339.760; 284.520;  -3.007;  20.599; 340.697; 192.187;;;;
2001-01-23T00:13:12.107Z;2;6.5830e-02;1;     0.184;    26.790;   2304.094; 1;   2304.094;   2304.250;   2317.528;   2290.738;;;;;;;;;;;;;;;;;;;;;;;; 339.769; 285.165;  -3.122;  20.599; 340.780; 192.337;;;;
2001-01-23T00:14:16.107Z;2;6.8850e-02;1;     0.180;    27.000;   2356.256; 1;   2356.256;   2356.411;   2369.795;   2342.795;;;;;;;;;;;;;;;;;;;;;;;; 339.777; 285.809;  -3.238;  20.600; 340.865; 192.487;;;;
2001-01-23T00:15:20.106Z;2;6.2950e-02;1;     0.207;    27.083;   2253.087; 1;   2253.087;   2253.250;   2266.669;   2239.586;;;;;;;;;;;;;;;;;;;;;;;; 339.786; 286.453;  -3.353;  20.601; 340.952; 192.637;;;;
2001-01-23T00:16:24.106Z;2;6.5830e-02;1;     0.184;    27.365;   2304.094; 1;   2304.094;   2304.257;   2317.817;   2290.452;;;;;;;;;;;;;;;;;;;;;;;; 339.795; 287.097;  -3.468;  20.601; 341.043; 192.787;;;;
2001-01-23T00:17:28.105Z;2;7.2000e-02;1;     0.275;    27.497;   2409.598; 1;   2409.598;   2409.755;   2423.386;   2395.888;;;;;;;;;;;;;;;;;;;;;;;; 339.804; 287.741;  -3.584;  20.602; 341.137; 192.937;;;;
2001-01-23T00:18:32.105Z;2;6.8850e-02;1;     0.180;    27.321;   2356.256; 1;   2356.256;   2356.415;   2369.956;   2342.635;;;;;;;;;;;;;;;;;;;;;;;; 339.813; 288.385;  -3.699;  20.602; 341.233; 193.087;;;;
2001-01-23T00:19:36.104Z;2;6.8850e-02;1;     0.180;    27.092;   2356.256; 1;   2356.256;   2356.412;   2369.841;   2342.749;;;;;;;;;;;;;;;;;;;;;;;; 339.822; 289.029;  -3.814;  20.603; 341.332; 193.237;;;;
2001-01-23T00:20:40.104Z;2;7.2000e-02;1;     0.275;    27.107;   2409.598; 1;   2409.598;   2409.750;   2423.189;   2396.083;;;;;;;;;;;;;;;;;;;;;;;; 339.830; 289.673;  -3.929;  20.603; 341.434; 193.387;;;;
2001-01-23T00:21:44.104Z;2;6.8850e-02;1;     0.180;    27.446;   2356.256; 1;   2356.256;   2356.416;   2370.019;   2342.573;;;;;;;;;;;;;;;;;;;;;;;; 339.839; 290.318;  -4.044;  20.604; 341.538; 193.537;;;;
2001-01-23T00:22:48.103Z;2;6.8850e-02;1;     0.180;    27.470;   2356.256; 1;   2356.256;   2356.416;   2370.031;   2342.561;;;;;;;;;;;;;;;;;;;;;;;; 339.848; 290.962;  -4.160;  20.604; 341.646; 193.687;;;;
2001-01-23T00:23:52.103Z;2;6.8850e-02;1;     0.180;    27.561;   2356.256; 1;   2356.256;   2356.417;   2370.077;   2342.516;;;;;;;;;;;;;;;;;;;;;;;; 339.857; 291.606;  -4.275;  20.605; 341.756; 193.838;;;;
2001-01-23T00:24:56.102Z;2;7.2000e-02;1;     0.275;    27.440;   2409.598; 1;   2409.598;   2409.754;   2423.357;   2395.917;;;;;;;;;;;;;;;;;;;;;;;; 339.866; 292.250;  -4.390;  20.605; 341.868; 193.988;;;;
2001-01-23T00:26:00.102Z;2;6.8850e-02;1;     0.180;    27.830;   2356.256; 1;   2356.256;   2356.420;   2370.212;   2342.382;;;;;;;;;;;;;;;;;;;;;;;; 339.875; 292.894;  -4.504;  20.606; 341.984; 194.138;;;;
2001-01-23T00:27:04.101Z;2;5.7560e-02;1;     0.344;    28.433;   2154.436; 1;   2154.436;   2154.624;   2168.699;   2140.266;;;;;;;;;;;;;;;;;;;;;;;; 339.883; 293.538;  -4.619;  20.606; 342.102; 194.288;;;;
2001-01-23T00:28:08.101Z;2;5.5040e-02;1;     0.352;    28.241;   2106.741; 1;   2106.741;   2106.930;   2120.909;   2092.668;;;;;;;;;;;;;;;;;;;;;;;; 339.892; 294.182;  -4.734;  20.607; 342.223; 194.438;;;;
2001-01-23T00:29:12.100Z;2;5.2630e-02;1;     0.360;    28.369;   2060.104; 1;   2060.104;   2060.299;   2074.337;   2045.969;;;;;;;;;;;;;;;;;;;;;;;; 339.901; 294.827;  -4.848;  20.607; 342.346; 194.588;;;;
2001-01-23T00:30:16.100Z;2;5.5040e-02;1;     0.352;    28.232;   2106.741; 1;   2106.741;   2106.930;   2120.904;   2092.672;;;;;;;;;;;;;;;;;;;;;;;; 339.910; 295.471;  -4.962;  20.607; 342.472; 194.738;;;;
2001-01-23T00:31:20.100Z;2;5.5040e-02;1;     0.352;    28.057;   2106.741; 1;   2106.741;   2106.928;   2120.816;   2092.759;;;;;;;;;;;;;;;;;;;;;;;; 339.919; 296.115;  -5.076;  20.608; 342.601; 194.888;;;;
2001-01-23T00:32:24.099Z;2;6.8850e-02;1;     0.180;    28.252;   2356.256; 1;   2356.256;   2356.426;   2370.425;   2342.172;;;;;;;;;;;;;;;;;;;;;;;; 339.927; 296.759;  -5.190;  20.608; 342.732; 195.038;;;;
2001-01-23T00:33:28.099Z;2;6.8850e-02;1;     0.180;    28.070;   2356.256; 1;   2356.256;   2356.423;   2370.333;   2342.263;;;;;;;;;;;;;;;;;;;;;;;; 339.936; 297.403;  -5.304;  20.608; 342.866; 195.188;;;;
2001-01-23T00:34:32.098Z;2;6.8850e-02;1;     0.180;    27.830;   2356.256; 1;   2356.256;   2356.420;   2370.212;   2342.382;;;;;;;;;;;;;;;;;;;;;;;; 339.945; 298.047;  -5.417;  20.608; 343.002; 195.339;;;;
2001-01-23T00:35:36.098Z;2;6.8850e-02;1;     0.180;    27.914;   2356.256; 1;   2356.256;   2356.421;   2370.254;   2342.341;;;;;;;;;;;;;;;;;;;;;;;; 339.954; 298.691;  -5.530;  20.609; 343.141; 195.489;;;;
2001-01-23T00:36:40.097Z;2;6.8850e-02;1;     0.180;    27.832;   2356.256; 1;   2356.256;   2356.420;   2370.213;   2342.381;;;;;;;;;;;;;;;;;;;;;;;; 339.963; 299.335;  -5.643;  20.609; 343.282; 195.639;;;;
2001-01-23T00:37:44.097Z;2;6.8850e-02;1;     0.180;    28.201;   2356.256; 1;   2356.256;   2356.425;   2370.399;   2342.198;;;;;;;;;;;;;;;;;;;;;;;; 339.972; 299.980;  -5.756;  20.609; 343.426; 195.789;;;;
2001-01-23T00:38:48.096Z;2;6.8850e-02;1;     0.180;    28.157;   2356.256; 1;   2356.256;   2356.424;   2370.377;   2342.220;;;;;;;;;;;;;;;;;;;;;;;; 339.980; 300.624;  -5.868;  20.609; 343.572; 195.939;;;;
2001-01-23T00:39:52.096Z;2;6.8850e-02;1;     0.180;    28.056;   2356.256; 1;   2356.256;   2356.423;   2370.326;   2342.270;;;;;;;;;;;;;;;;;;;;;;;; 339.989; 301.268;  -5.981;  20.609; 343.721; 196.089;;;;
2001-01-23T00:40:56.096Z;2;6.2950e-02;1;     0.207;    27.735;   2253.087; 1;   2253.087;   2253.258;   2266.997;   2239.262;;;;;;;;;;;;;;;;;;;;;;;; 339.998; 301.912;  -6.092;  20.609; 343.871; 196.239;;;;
2001-01-23T00:42:00.095Z;2;6.8850e-02;1;     0.180;    27.265;   2356.256; 1;   2356.256;   2356.414;   2369.928;   2342.663;;;;;;;;;;;;;;;;;;;;;;;; 340.007; 302.556;  -6.204;  20.610; 344.025; 196.389;;;;
2001-01-23T00:43:04.095Z;2;6.5830e-02;1;     0.184;    27.136;   2304.094; 1;   2304.094;   2304.254;   2317.702;   2290.566;;;;;;;;;;;;;;;;;;;;;;;; 340.016; 303.200;  -6.315;  20.610; 344.180; 196.540;;;;
2001-01-23T00:44:08.094Z;2;6.8850e-02;1;     0.180;    27.184;   2356.256; 1;   2356.256;   2356.413;   2369.887;   2342.703;;;;;;;;;;;;;;;;;;;;;;;; 340.025; 303.844;  -6.426;  20.610; 344.337; 196.690;;;;
2001-01-23T00:45:12.094Z;2;6.8850e-02;1;     0.180;    27.272;   2356.256; 1;   2356.256;   2356.414;   2369.932;   2342.659;;;;;;;;;;;;;;;;;;;;;;;; 340.033; 304.488;  -6.536;  20.610; 344.497; 196.840;;;;
2001-01-23T00:46:16.094Z;2;6.8850e-02;1;     0.180;    27.198;   2356.256; 1;   2356.256;   2356.413;   2369.895;   2342.696;;;;;;;;;;;;;;;;;;;;;;;; 340.042; 305.133;  -6.646;  20.610; 344.659; 196.990;;;;
2001-01-23T00:47:20.093Z;2;6.8850e-02;1;     0.180;    27.109;   2356.256; 1;   2356.256;   2356.412;   2369.850;   2342.740;;;;;;;;;;;;;;;;;;;;;;;; 340.051; 305.777;  -6.756;  20.610; 344.823; 197.140;;;;
2001-01-23T00:48:24.093Z;2;6.5830e-02;1;     0.184;    26.862;   2304.094; 1;   2304.094;   2304.250;   2317.564;   2290.702;;;;;;;;;;;;;;;;;;;;;;;; 340.060; 306.421;  -6.865;  20.610; 344.989; 197.290;;;;
2001-01-23T00:49:28.092Z;2;6.8850e-02;1;     0.180;    26.660;   2356.256; 1;   2356.256;   2356.407;   2369.624;   2342.964;;;;;;;;;;;;;;;;;;;;;;;; 340.069; 307.065;  -6.974;  20.609; 345.157; 197.441;;;;
2001-01-23T00:50:32.092Z;2;6.8850e-02;1;     0.180;    26.516;   2356.256; 1;   2356.256;   2356.405;   2369.552;   2343.035;;;;;;;;;;;;;;;;;;;;;;;; 340.078; 307.709;  -7.082;  20.609; 345.327; 197.591;;;;
2001-01-23T00:51:36.091Z;2;6.8850e-02;1;     0.180;    26.664;   2356.256; 1;   2356.256;   2356.407;   2369.626;   2342.962;;;;;;;;;;;;;;;;;;;;;;;; 340.086; 308.353;  -7.190;  20.609; 345.499; 197.741;;;;
2001-01-23T00:52:40.091Z;2;7.2000e-02;1;     0.275;    28.183;   2409.598; 1;   2409.598;   2409.763;   2423.730;   2395.548;;;;;;;;;;;;;;;;;;;;;;;; 340.095; 308.997;  -7.298;  20.609; 345.673; 197.891;;;;
2001-01-23T00:53:44.090Z;2;6.8850e-02;1;     0.180;    28.335;   2356.256; 1;   2356.256;   2356.427;   2370.466;   2342.131;;;;;;;;;;;;;;;;;;;;;;;; 340.104; 309.642;  -7.405;  20.609; 345.849; 198.041;;;;
2001-01-23T00:54:48.090Z;2;6.8850e-02;1;     0.180;    28.245;   2356.256; 1;   2356.256;   2356.425;   2370.421;   2342.176;;;;;;;;;;;;;;;;;;;;;;;; 340.113; 310.286;  -7.512;  20.609; 346.026; 198.191;;;;
2001-01-23T00:55:52.090Z;2;6.8850e-02;1;     0.180;    28.341;   2356.256; 1;   2356.256;   2356.427;   2370.469;   2342.128;;;;;;;;;;;;;;;;;;;;;;;; 340.122; 310.930;  -7.618;  20.608; 346.205; 198.342;;;;
2001-01-23T00:56:56.089Z;2;6.8850e-02;1;     0.180;    28.060;   2356.256; 1;   2356.256;   2356.423;   2370.328;   2342.268;;;;;;;;;;;;;;;;;;;;;;;; 340.131; 311.574;  -7.723;  20.608; 346.386; 198.492;;;;
2001-01-23T00:58:00.089Z;2;6.8850e-02;1;     0.180;    28.070;   2356.256; 1;   2356.256;   2356.423;   2370.333;   2342.263;;;;;;;;;;;;;;;;;;;;;;;; 340.139; 312.218;  -7.828;  20.608; 346.569; 198.642;;;;
2001-01-23T00:59:04.088Z;2;6.5830e-02;1;     0.184;    28.144;   2304.094; 1;   2304.094;   2304.266;   2318.209;   2290.065;;;;;;;;;;;;;;;;;;;;;;;; 340.148; 312.862;  -7.933;  20.608; 346.753; 198.792;;;;
2001-01-23T01:00:08.088Z;2;6.2950e-02;1;     0.207;    28.174;   2253.087; 1;   2253.087;   2253.263;   2267.218;   2239.044;;;;;;;;;;;;;;;;;;;;;;;; 340.157; 313.506;  -8.037;  20.607; 346.938; 198.942;;;;
2001-01-23T01:01:12.087Z;2;6.8850e-02;1;     0.180;    26.738;   2356.256; 1;   2356.256;   2356.408;   2369.663;   2342.925;;;;;;;;;;;;;;;;;;;;;;;; 340.166; 314.150;  -8.140;  20.607; 347.125; 199.093;;;;
2001-01-23T01:02:16.087Z;2;6.2950e-02;1;     0.207;    27.020;   2253.087; 1;   2253.087;   2253.249;   2266.637;   2239.618;;;;;;;;;;;;;;;;;;;;;;;; 340.175; 314.795;  -8.243;  20.606; 347.314; 199.243;;;;
2001-01-23T01:03:20.086Z;2;6.2950e-02;1;     0.207;    27.193;   2253.087; 1;   2253.087;   2253.251;   2266.725;   2239.531;;;;;;;;;;;;;;;;;;;;;;;; 340.184; 315.439;  -8.345;  20.606; 347.503; 199.393;;;;
2001-01-23T01:04:24.086Z;2;6.5830e-02;1;     0.184;    27.048;   2304.094; 1;   2304.094;   2304.253;   2317.657;   2290.610;;;;;;;;;;;;;;;;;;;;;;;; 340.192; 316.083;  -8.447;  20.606; 347.694; 199.543;;;;
2001-01-23T01:05:28.086Z;2;6.5830e-02;1;     0.184;    26.804;   2304.094; 1;   2304.094;   2304.250;   2317.535;   2290.731;;;;;;;;;;;;;;;;;;;;;;;; 340.201; 316.727;  -8.548;  20.605; 347.887; 199.693;;;;
2001-01-23T01:06:32.085Z;2;6.0190e-02;1;     0.212;    26.853;   2203.209; 1;   2203.209;   2203.373;   2216.677;   2189.823;;;;;;;;;;;;;;;;;;;;;;;; 340.210; 317.371;  -8.648;  20.605; 348.080; 199.844;;;;
2001-01-23T01:07:36.085Z;2;6.5830e-02;1;     0.184;    26.877;   2304.094; 1;   2304.094;   2304.251;   2317.572;   2290.695;;;;;;;;;;;;;;;;;;;;;;;; 340.219; 318.015;  -8.748;  20.604; 348.274; 199.994;;;;
2001-01-23T01:08:40.084Z;2;6.0190e-02;1;     0.212;    26.798;   2203.209; 1;   2203.209;   2203.372;   2216.649;   2189.851;;;;;;;;;;;;;;;;;;;;;;;; 340.228; 318.659;  -8.847;  20.604; 348.470; 200.144;;;;
2001-01-23T01:09:44.084Z;2;6.5830e-02;1;     0.184;    26.851;   2304.094; 1;   2304.094;   2304.250;   2317.559;   2290.708;;;;;;;;;;;;;;;;;;;;;;;; 340.236; 319.303;  -8.945;  20.603; 348.666; 200.294;;;;
2001-01-23T01:10:48.083Z;2;6.5830e-02;1;     0.184;    26.717;   2304.094; 1;   2304.094;   2304.249;   2317.491;   2290.774;;;;;;;;;;;;;;;;;;;;;;;; 340.245; 319.948;  -9.043;  20.603; 348.864; 200.444;;;;
2001-01-23T01:11:52.083Z;2;6.2950e-02;1;     0.207;    27.249;   2253.087; 1;   2253.087;   2253.252;   2266.753;   2239.504;;;;;;;;;;;;;;;;;;;;;;;; 340.254; 320.592;  -9.140;  20.602; 349.062; 200.595;;;;
2001-01-23T01:12:56.082Z;2;6.8850e-02;1;     0.180;    27.006;   2356.256; 1;   2356.256;   2356.411;   2369.798;   2342.792;;;;;;;;;;;;;;;;;;;;;;;; 340.263; 321.236;  -9.236;  20.601; 349.261; 200.745;;;;
2001-01-23T01:14:00.082Z;2;6.8850e-02;1;     0.180;    26.845;   2356.256; 1;   2356.256;   2356.409;   2369.717;   2342.872;;;;;;;;;;;;;;;;;;;;;;;; 340.272; 321.880;  -9.332;  20.601; 349.460; 200.895;;;;
2001-01-23T01:15:04.082Z;2;6.5830e-02;1;     0.184;    26.820;   2304.094; 1;   2304.094;   2304.250;   2317.543;   2290.723;;;;;;;;;;;;;;;;;;;;;;;; 340.281; 322.524;  -9.427;  20.600; 349.661; 201.045;;;;
2001-01-23T01:16:08.081Z;2;6.2950e-02;1;     0.207;    27.064;   2253.087; 1;   2253.087;   2253.250;   2266.660;   2239.595;;;;;;;;;;;;;;;;;;;;;;;; 340.289; 323.168;  -9.521;  20.599; 349.861; 201.196;;;;
2001-01-23T01:17:12.081Z;2;6.2950e-02;1;     0.207;    27.402;   2253.087; 1;   2253.087;   2253.253;   2266.829;   2239.428;;;;;;;;;;;;;;;;;;;;;;;; 340.298; 323.812;  -9.614;  20.599; 350.063; 201.346;;;;
2001-01-23T01:18:16.080Z;2;6.5830e-02;1;     0.184;    27.509;   2304.094; 1;   2304.094;   2304.258;   2317.890;   2290.380;;;;;;;;;;;;;;;;;;;;;;;; 340.307; 324.457;  -9.707;  20.598; 350.264; 201.496;;;;
2001-01-23T01:19:20.080Z;2;6.5830e-02;1;     0.184;    27.326;   2304.094; 1;   2304.094;   2304.256;   2317.798;   2290.471;;;;;;;;;;;;;;;;;;;;;;;; 340.316; 325.101;  -9.799;  20.597; 350.467; 201.646;;;;
2001-01-23T01:20:24.079Z;2;5.7560e-02;1;     0.344;    27.214;   2154.436; 1;   2154.436;   2154.608;   2168.086;   2140.872;;;;;;;;;;;;;;;;;;;;;;;; 340.325; 325.745;  -9.890;  20.596; 350.669; 201.797;;;;
2001-01-23T01:21:28.079Z;2;6.5830e-02;1;     0.184;    27.082;   2304.094; 1;   2304.094;   2304.253;   2317.675;   2290.593;;;;;;;;;;;;;;;;;;;;;;;; 340.334; 326.389;  -9.980;  20.595; 350.872; 201.947;;;;
2001-01-23T01:22:32.078Z;2;6.8850e-02;1;     0.180;    27.211;   2356.256; 1;   2356.256;   2356.413;   2369.901;   2342.690;;;;;;;;;;;;;;;;;;;;;;;; 340.342; 327.033; -10.069;  20.595; 351.074; 202.097;;;;
2001-01-23T01:23:36.078Z;2;6.2950e-02;1;     0.207;    26.791;   2253.087; 1;   2253.087;   2253.246;   2266.522;   2239.731;;;;;;;;;;;;;;;;;;;;;;;; 340.351; 327.677; -10.158;  20.594; 351.277; 202.247;;;;
2001-01-23T01:24:40.078Z;2;5.7560e-02;1;     0.344;    26.544;   2154.436; 1;   2154.436;   2154.600;   2167.749;   2141.205;;;;;;;;;;;;;;;;;;;;;;;; 340.360; 328.321; -10.246;  20.593; 351.480; 202.398;;;;
2001-01-23T01:25:44.077Z;2;5.7560e-02;1;     0.344;    26.725;   2154.436; 1;   2154.436;   2154.602;   2167.840;   2141.115;;;;;;;;;;;;;;;;;;;;;;;; 340.369; 328.965; -10.332;  20.592; 351.683; 202.548;;;;
2001-01-23T01:26:48.077Z;2;5.7560e-02;1;     0.344;    26.394;   2154.436; 1;   2154.436;   2154.598;   2167.673;   2141.280;;;;;;;;;;;;;;;;;;;;;;;; 340.378; 329.610; -10.418;  20.591; 351.885; 202.698;;;;
2001-01-23T01:27:52.076Z;2;5.7560e-02;1;     0.344;    26.017;   2154.436; 1;   2154.436;   2154.593;   2167.484;   2141.467;;;;;;;;;;;;;;;;;;;;;;;; 340.387; 330.254; -10.504;  20.590; 352.087; 202.849;;;;
2001-01-23T01:28:56.076Z;2;6.8850e-02;1;     0.180;    26.304;   2356.256; 1;   2356.256;   2356.403;   2369.445;   2343.141;;;;;;;;;;;;;;;;;;;;;;;; 340.395; 330.898; -10.588;  20.589; 352.289; 202.999;;;;
2001-01-23T01:30:00.075Z;2;6.2950e-02;1;     0.207;    26.201;   2253.087; 1;   2253.087;   2253.239;   2266.225;   2240.025;;;;;;;;;;;;;;;;;;;;;;;; 340.404; 331.542; -10.671;  20.588; 352.491; 203.149;;;;
2001-01-23T01:31:04.075Z;2;5.5040e-02;1;     0.352;    26.209;   2106.741; 1;   2106.741;   2106.904;   2119.886;   2093.677;;;;;;;;;;;;;;;;;;;;;;;; 340.413; 332.186; -10.754;  20.587; 352.692; 203.299;;;;
2001-01-23T01:32:08.074Z;2;6.5830e-02;1;     0.184;    26.598;   2304.094; 1;   2304.094;   2304.248;   2317.431;   2290.833;;;;;;;;;;;;;;;;;;;;;;;; 340.422; 332.830; -10.835;  20.586; 352.893; 203.450;;;;
2001-01-23T01:33:12.074Z;2;6.8850e-02;1;     0.180;    26.545;   2356.256; 1;   2356.256;   2356.406;   2369.566;   2343.021;;;;;;;;;;;;;;;;;;;;;;;; 340.431; 333.474; -10.916;  20.585; 353.093; 203.600;;;;
2001-01-23T01:34:16.073Z;2;6.0190e-02;1;     0.212;    26.307;   2203.209; 1;   2203.209;   2203.366;   2216.402;   2190.095;;;;;;;;;;;;;;;;;;;;;;;; 340.440; 334.118; -10.996;  20.584; 353.292; 203.750;;;;
2001-01-23T01:35:20.073Z;2;5.7560e-02;1;     0.344;    26.197;   2154.436; 1;   2154.436;   2154.595;   2167.574;   2141.377;;;;;;;;;;;;;;;;;;;;;;;; 340.448; 334.763; -11.074;  20.583; 353.491; 203.901;;;;
2001-01-23T01:36:24.073Z;2;5.7560e-02;1;     0.344;    26.327;   2154.436; 1;   2154.436;   2154.597;   2167.640;   2141.313;;;;;;;;;;;;;;;;;;;;;;;; 340.457; 335.407; -11.152;  20.582; 353.688; 204.051;;;;
2001-01-23T01:37:28.072Z;2;6.0190e-02;1;     0.212;    26.057;   2203.209; 1;   2203.209;   2203.363;   2216.276;   2190.219;;;;;;;;;;;;;;;;;;;;;;;; 340.466; 336.051; -11.229;  20.581; 353.885; 204.201;;;;
2001-01-23T01:38:32.072Z;2;6.2950e-02;1;     0.207;    25.979;   2253.087; 1;   2253.087;   2253.237;   2266.114;   2240.135;;;;;;;;;;;;;;;;;;;;;;;; 340.475; 336.695; -11.305;  20.580; 354.081; 204.352;;;;
2001-01-23T01:39:36.071Z;2;6.2950e-02;1;     0.207;    25.751;   2253.087; 1;   2253.087;   2253.234;   2266.000;   2240.248;;;;;;;;;;;;;;;;;;;;;;;; 340.484; 337.339; -11.379;  20.578; 354.276; 204.502;;;;
2001-01-23T01:40:40.071Z;2;6.2950e-02;1;     0.207;    25.839;   2253.087; 1;   2253.087;   2253.235;   2266.044;   2240.204;;;;;;;;;;;;;;;;;;;;;;;; 340.493; 337.983; -11.453;  20.577; 354.469; 204.652;;;;
2001-01-23T01:41:44.070Z;2;6.0190e-02;1;     0.212;    26.333;   2203.209; 1;   2203.209;   2203.366;   2216.415;   2190.082;;;;;;;;;;;;;;;;;;;;;;;; 340.501; 338.627; -11.526;  20.576; 354.662; 204.802;;;;
2001-01-23T01:42:48.070Z;2;6.2950e-02;1;     0.207;    26.278;   2253.087; 1;   2253.087;   2253.240;   2266.264;   2239.987;;;;;;;;;;;;;;;;;;;;;;;; 340.510; 339.272; -11.598;  20.575; 354.853; 204.953;;;;
2001-01-23T01:43:52.070Z;2;6.0190e-02;1;     0.212;    26.463;   2203.209; 1;   2203.209;   2203.368;   2216.480;   2190.017;;;;;;;;;;;;;;;;;;;;;;;; 340.519; 339.916; -11.669;  20.574; 355.042; 205.103;;;;
2001-01-23T01:44:56.069Z;2;6.0190e-02;1;     0.212;    26.680;   2203.209; 1;   2203.209;   2203.371;   2216.589;   2189.909;;;;;;;;;;;;;;;;;;;;;;;; 340.528; 340.560; -11.738;  20.573; 355.230; 205.253;;;;
2001-01-23T01:46:00.069Z;2;6.2950e-02;1;     0.207;    26.264;   2253.087; 1;   2253.087;   2253.240;   2266.257;   2239.993;;;;;;;;;;;;;;;;;;;;;;;; 340.537; 341.204; -11.807;  20.571; 355.417; 205.404;;;;
2001-01-23T01:47:04.068Z;2;6.2950e-02;1;     0.207;    26.544;   2253.087; 1;   2253.087;   2253.243;   2266.398;   2239.854;;;;;;;;;;;;;;;;;;;;;;;; 340.546; 341.848; -11.875;  20.570; 355.602; 205.554;;;;
2001-01-23T01:48:08.068Z;2;6.2950e-02;1;     0.207;    26.752;   2253.087; 1;   2253.087;   2253.246;   2266.502;   2239.751;;;;;;;;;;;;;;;;;;;;;;;; 340.554; 342.492; -11.941;  20.569; 355.786; 205.704;;;;
2001-01-23T01:49:12.067Z;2;6.5830e-02;1;     0.184;    26.529;   2304.094; 1;   2304.094;   2304.247;   2317.397;   2290.868;;;;;;;;;;;;;;;;;;;;;;;; 340.563; 343.136; -12.007;  20.568; 355.967; 205.855;;;;
2001-01-23T01:50:16.067Z;2;6.5830e-02;1;     0.184;    26.427;   2304.094; 1;   2304.094;   2304.246;   2317.346;   2290.918;;;;;;;;;;;;;;;;;;;;;;;; 340.572; 343.780; -12.071;  20.566; 356.147; 206.005;;;;
2001-01-23T01:51:20.066Z;2;6.5830e-02;1;     0.184;    26.514;   2304.094; 1;   2304.094;   2304.247;   2317.389;   2290.875;;;;;;;;;;;;;;;;;;;;;;;; 340.581; 344.425; -12.134;  20.565; 356.325; 206.156;;;;
2001-01-23T01:52:24.066Z;2;6.8850e-02;1;     0.180;    26.821;   2356.256; 1;   2356.256;   2356.409;   2369.705;   2342.884;;;;;;;;;;;;;;;;;;;;;;;; 340.590; 345.069; -12.196;  20.564; 356.501; 206.306;;;;
2001-01-23T01:53:28.066Z;2;6.0190e-02;1;     0.212;    26.883;   2203.209; 1;   2203.209;   2203.373;   2216.691;   2189.809;;;;;;;;;;;;;;;;;;;;;;;; 340.599; 345.713; -12.257;  20.562; 356.675; 206.456;;;;